Location: Düngen
(52.0952°N, 10.0219°E)
Time: 17:08:48
(UTC+00:00)

Cosmos 921 Rocket - Visible Passes

Search period start: 11 June 2026 00:00
Search period end: 21 June 2026 00:00
Orbit: 563 x 619 km, 75.8° (Epoch: 10 June)

Date Brightness Start Highest point End Pass type
(mag) Time Alt. Az. Time Alt. Az. Time Alt. Az.
11 Jun 4.5 01:15:58 10° SSE 01:19:39 30° E 01:23:20 10° NE visible
12 Jun 3.8 01:24:05 10° S 01:28:07 44° ESE 01:32:07 10° NNE visible
13 Jun 3.1 01:32:35 11° S 01:36:39 69° ESE 01:40:49 10° NNE visible
14 Jun 5.3 00:05:41 10° ESE 00:07:45 13° E 00:09:47 10° ENE visible
14 Jun 3.0 01:41:10 11° SSW 01:45:12 79° WNW 01:49:25 10° NNE visible
15 Jun 4.9 00:13:08 10° SE 00:16:06 20° E 00:19:10 10° NE visible
15 Jun 3.4 01:49:43 10° SW 01:53:49 52° WNW 01:57:55 10° NNE visible
16 Jun 4.3 00:21:39 14° SSE 00:24:30 29° E 00:28:09 10° NE visible
16 Jun 3.9 01:58:36 10° SW 02:02:30 35° WNW 02:06:22 10° N visible
17 Jun 3.6 00:30:08 18° S 00:32:58 44° ESE 00:36:57 10° NNE visible
18 Jun 3.0 00:38:36 19° S 00:41:29 68° ESE 00:45:37 10° NNE visible
18 Jun 5.2 23:10:35 10° ESE 23:12:35 13° E 23:14:34 10° ENE visible
19 Jun 2.9 00:47:02 19° SSW 00:50:02 79° WNW 00:54:13 10° NNE visible
19 Jun 4.7 23:18:53 14° SE 23:20:56 20° E 23:23:57 10° NE visible
20 Jun 3.4 00:55:26 16° SW 00:58:38 52° WNW 01:02:43 10° NNE visible
20 Jun 4.2 23:27:16 19° SE 23:29:20 29° E 23:32:56 10° NE visible
